Date String (YYYY-MM-DD hh:mm:ss) UTC,Instrument flags,Ambient pressure (hPa),Sample flow (lpm),Bypass flow (lpm),Sample temperature (°C),Ambient temperature (°C),ASC tube jacket temperature (°C),LED temperature (°C),Box temperature (°C),Sample RH (%),Span deviation,Mass concentration (μg/m³),Mass concentration (μg/m³),Mass concentration (μg/m³)
DateTimeUTC,F1_M11,P_M11,Q1_M11,Q2_M11,T1_M11,T2_M11,T3_M11,T4_M11,T5_M11,U1_M11,ZSPAN_M11,X0_M11,X2_M11,X1_M11
2021-12-24 00:00:00,,0814.5,5.00,0.00,24.3,23.5,00.0,33.5,25.9,20.5,0000.0,0000.72,0000.21,0000.05
2021-12-24 00:01:00,,0814.4,5.00,0.00,24.3,23.5,00.0,33.5,25.9,20.7,0000.0,0000.76,0000.23,0000.06
2021-12-24 00:02:00,,0814.4,5.00,0.00,24.3,23.6,00.0,33.5,25.9,20.6,0000.0,0000.78,0000.24,0000.06
2021-12-24 00:03:00,,0814.3,5.00,0.00,24.3,23.6,00.0,33.5,26.0,20.6,0000.0,0000.77,0000.24,0000.06
2021-12-24 00:04:00,,0814.3,4.99,0.00,24.3,23.6,00.0,33.5,26.0,20.3,0000.0,0000.78,0000.25,0000.06
2021-12-24 00:05:00,,0814.1,5.00,0.00,24.3,23.5,00.0,33.5,25.9,20.0,0000.0,0000.69,0000.24,0000.06
2021-12-24 00:06:00,,0814.2,5.01,0.00,24.3,23.5,00.0,33.5,26.0,19.8,0000.0,0000.59,0000.22,0000.06
2021-12-24 00:07:00,,0814.1,5.00,0.00,24.3,23.5,00.0,33.4,26.0,20.0,0000.0,0000.65,0000.24,0000.06
2021-12-24 00:08:00,,0814.1,5.00,0.00,24.3,23.6,00.0,33.4,25.9,20.4,0000.0,0000.65,0000.23,0000.06
2021-12-24 00:09:00,,0814.1,5.01,0.00,24.3,23.5,00.0,33.4,25.9,20.7,0000.0,0001.69,0000.22,0000.06
2021-12-24 00:10:00,,0814.2,5.00,0.00,24.3,23.6,00.0,33.4,26.0,20.8,0000.0,0002.01,0000.18,0000.06
2021-12-24 00:11:00,,0814.3,5.00,0.00,24.3,23.6,00.0,33.4,26.0,20.8,0000.0,0001.96,0000.16,0000.06
2021-12-24 00:12:00,,0814.5,4.99,0.00,24.4,23.6,00.0,33.4,26.0,20.8,0000.0,0002.00,0000.15,0000.05
2021-12-24 00:13:00,,0814.6,5.00,0.00,24.4,23.6,00.0,33.4,26.0,21.0,0000.0,0002.03,0000.15,0000.05
2021-12-24 00:14:00,,0814.3,5.01,0.00,24.4,23.7,00.0,33.4,26.0,21.1,0000.0,0001.99,0000.14,0000.06
2021-12-24 00:15:00,,0814.0,5.00,0.00,24.4,23.6,00.0,33.4,26.0,21.3,0000.0,0002.72,0000.14,0000.06
2021-12-24 00:16:00,,0814.1,4.99,0.00,24.4,23.6,00.0,33.4,26.1,21.4,0000.0,0002.90,0000.15,0000.06
2021-12-24 00:17:00,,0814.4,5.00,0.00,24.4,23.7,00.0,33.4,26.1,21.4,0000.0,0002.92,0000.16,0000.07
2021-12-24 00:18:00,,0814.3,5.00,0.00,24.4,23.7,00.0,33.4,26.1,21.5,0000.0,0002.88,0000.15,0000.07
2021-12-24 00:19:00,,0814.0,5.00,0.00,24.4,23.7,00.0,33.4,26.1,21.4,0000.0,0002.85,0000.14,0000.08
2021-12-24 00:20:00,,0814.1,5.00,0.00,24.4,23.7,00.0,33.5,26.2,21.5,0000.0,0001.64,0000.14,0000.08
2021-12-24 00:21:00,,0814.0,5.00,0.00,24.4,23.7,00.0,33.5,26.1,21.6,0000.0,0001.24,0000.14,0000.09
2021-12-24 00:22:00,,0814.0,4.99,0.00,24.4,23.7,00.0,33.5,26.1,21.6,0000.0,0001.22,0000.14,0000.09
2021-12-24 00:23:00,,0813.9,5.01,0.00,24.4,23.7,00.0,33.5,26.1,21.5,0000.0,0001.19,0000.14,0000.09
2021-12-24 00:24:00,,0814.3,5.00,0.00,24.4,23.7,00.0,33.5,26.1,21.3,0000.0,0001.20,0000.15,0000.10
2021-12-24 00:25:00,,0814.1,5.00,0.00,24.4,23.7,00.0,33.5,26.1,21.4,0000.0,0001.35,0000.17,0000.10
2021-12-24 00:26:00,,0814.0,5.01,0.00,24.4,23.7,00.0,33.5,26.1,21.4,0000.0,0000.51,0000.17,0000.10
2021-12-24 00:27:00,,0814.2,5.00,0.00,24.4,23.6,00.0,33.5,26.0,21.4,0000.0,0000.42,0000.16,0000.10
2021-12-24 00:28:00,,0814.2,4.98,0.00,24.4,23.6,00.0,33.5,26.0,21.4,0000.0,0000.40,0000.16,0000.10
2021-12-24 00:29:00,,0814.0,5.00,0.00,24.4,23.6,00.0,33.5,26.1,21.4,0000.0,0000.40,0000.16,0000.10
2021-12-24 00:30:00,,0813.6,5.00,0.00,24.4,23.6,00.0,33.5,26.1,21.3,0000.0,0000.42,0000.17,0000.09
2021-12-24 00:31:00,,0813.6,5.00,0.00,24.4,23.7,00.0,33.5,26.1,21.3,0000.0,0000.43,0000.18,0000.09
2021-12-24 00:32:00,,0813.6,5.01,0.00,24.4,23.7,00.0,33.5,26.2,21.1,0000.0,0000.45,0000.19,0000.09
2021-12-24 00:33:00,,0813.5,5.00,0.00,24.4,23.6,00.0,33.5,26.1,21.1,0000.0,0000.47,0000.19,0000.10
2021-12-24 00:34:00,,0813.5,4.99,0.00,24.4,23.6,00.0,33.5,26.1,21.1,0000.0,0000.42,0000.18,0000.10
2021-12-24 00:35:00,,0813.6,5.00,0.00,24.4,23.6,00.0,33.5,26.1,21.1,0000.0,0000.40,0000.18,0000.10
2021-12-24 00:36:00,,0813.6,5.01,0.00,24.4,23.5,00.0,33.5,26.1,21.1,0000.0,0000.26,0000.17,0000.10
2021-12-24 00:37:00,,0813.9,5.01,0.00,24.4,23.6,00.0,33.5,26.1,21.1,0000.0,0000.29,0000.17,0000.10
2021-12-24 00:38:00,,0814.2,4.99,0.00,24.4,23.5,00.0,33.5,26.1,21.1,0000.0,0000.32,0000.18,0000.10
2021-12-24 00:39:00,,0814.2,5.00,0.00,24.4,23.5,00.0,33.5,26.1,20.9,0000.0,0000.33,0000.17,0000.09
2021-12-24 00:40:00,,0813.8,5.01,0.00,24.4,23.5,00.0,33.5,26.1,20.9,0000.0,0000.35,0000.17,0000.10
2021-12-24 00:41:00,,0813.9,5.00,0.00,24.4,23.6,00.0,33.5,26.1,20.9,0000.0,0000.35,0000.17,0000.10
2021-12-24 00:42:00,,0814.0,4.99,0.00,24.5,23.6,00.0,33.5,26.1,21.0,0000.0,0000.34,0000.17,0000.10
2021-12-24 00:43:00,,0814.0,5.01,0.00,24.4,23.6,00.0,33.5,26.1,21.0,0000.0,0000.36,0000.17,0000.10
2021-12-24 00:44:00,,0813.9,4.99,0.00,24.4,23.6,00.0,33.5,26.1,20.9,0000.0,0000.38,0000.18,0000.10
2021-12-24 00:45:00,,0813.9,5.00,0.00,24.4,23.6,00.0,33.5,26.1,20.7,0000.0,0000.39,0000.18,0000.10
2021-12-24 00:46:00,,0813.9,5.00,0.00,24.4,23.6,00.0,33.5,26.1,20.6,0000.0,0000.39,0000.17,0000.10
2021-12-24 00:47:00,,0813.9,5.01,0.00,24.4,23.6,00.0,33.5,26.0,20.4,0000.0,0000.42,0000.19,0000.10
2021-12-24 00:48:00,,0814.3,4.99,0.00,24.4,23.6,00.0,33.5,26.0,20.4,0000.0,0000.41,0000.19,0000.10
2021-12-24 00:49:00,,0814.1,5.00,0.00,24.4,23.5,00.0,33.5,26.0,20.2,0000.0,0000.40,0000.19,0000.11
2021-12-24 00:50:00,,0813.8,5.01,0.00,24.4,23.6,00.0,33.5,26.0,20.2,0000.0,0000.37,0000.19,0000.11
2021-12-24 00:51:00,,0814.1,4.99,0.00,24.4,23.6,00.0,33.5,26.0,20.2,0000.0,0000.35,0000.19,0000.12
2021-12-24 00:52:00,,0814.0,5.00,0.00,24.4,23.6,00.0,33.4,26.0,20.2,0000.0,0000.35,0000.19,0000.12
2021-12-24 00:53:00,,0814.2,5.01,0.00,24.4,23.6,00.0,33.4,26.0,20.3,0000.0,0000.37,0000.20,0000.13
2021-12-24 00:54:00,,0814.3,5.00,0.00,24.4,23.5,00.0,33.4,26.0,20.3,0000.0,0000.35,0000.20,0000.13
2021-12-24 00:55:00,,0814.1,5.01,0.00,24.4,23.5,00.0,33.4,26.0,20.3,0000.0,0000.33,0000.19,0000.13
2021-12-24 00:56:00,,0814.3,4.99,0.00,24.4,23.5,00.0,33.4,26.0,20.5,0000.0,0000.37,0000.20,0000.13
2021-12-24 00:57:00,,0814.1,4.99,0.00,24.4,23.6,00.0,33.4,26.0,20.5,0000.0,0000.44,0000.22,0000.14
2021-12-24 00:58:00,,0814.3,5.01,0.00,24.4,23.6,00.0,33.4,26.1,20.3,0000.0,0000.65,0000.23,0000.15
2021-12-24 00:59:00,,0814.2,4.99,0.00,24.4,23.6,00.0,33.4,26.1,20.2,0000.0,0001.02,0000.24,0000.16
